Location: Anuling
(14.1239°N, 120.8922°E)
Time: 05:23:54
(UTC+00:00)

Okean 1-7 - Pass Details

Date: 14 January 2026
Orbit: 566 x 588 km, 82.5° (Epoch: 10 February)

Event Time Altitude Azimuth Distance (km) Brightness Sun altitude
Rises 10:28:18 0° 157° (SSE) 2,776 6.4 -10.3°
Reaches altitude 10° 10:30:53 10° 141° (SE) 1,875 5.3 -10.9°
Maximum altitude 10:34:02 21° 92° (E) 1,296 4.2 -11.6°
Enters shadow 10:35:40 17° 60° (ENE) 1,471 4.4 -12.0°
